Regional Weather Roundup
Issued by NWS

Home | Current Version | Previous Version | Graphics & Text | Print | Product List | Glossary On
Versions: 1 2 3 4 5 6 7 8 9 10 11 12 13 14 15 16 17 18 19 20 21 22 23 24 25 26 27 28 29 30 31 32 33 34 35 36 37 38 39 40 41 42 43 44 45 46 47 48 49 50
000
ASUS43 KDMX 232203
RWRIA

WEATHER ROUNDUP FOR IOWA
NATIONAL WEATHER SERVICE DES MOINES IA
500 PM CDT SAT JUL 23 2016

NOTE: "FAIR" INDICATES FEW OR NO CLOUDS BELOW 12,000 FEET WITH NO
SIGNIFICANT WEATHER AND/OR OBSTRUCTIONS TO VISIBILITY.

* - THESE STATIONS ARE NOT NWS STATIONS...THUS NOT UNDER NWS
QUALITY CONTROL.  THEY ALSO DO NOT REPORT WEATHER SUCH
AS PRECIPITATION OR FOG.

IAZ001>003-012>014-020>022-031>034-043>046-232300-
   NORTHWEST IOWA

CITY           SKY/WX    TMP DP  RH WIND       PRES   REMARKS
CARROLL *      MOSUNNY   88  77  70 S12G18    29.81F HX 100
CHEROKEE *     MOSUNNY   88  77  69 S10       29.77F HX 101
DENISON *      SUNNY     88  79  74 S12G17    29.78S HX 102
LE MARS *      SUNNY     90  77  66 S16       29.76S HX 102
SHELDON *      SUNNY     86  79  79 S10G17    29.76F HX  99
SIOUX CITY     SUNNY     93  76  57 S14       29.75F HX 105
SPENCER        SUNNY     87  75  67 S14       29.79F HX  96
STORM LAKE *   SUNNY     88  77  70 S9        29.81S HX 100
$$

IAZ055>058-069>071-079>083-090>094-232300-
   SOUTHWEST IOWA

CITY           SKY/WX    TMP DP  RH WIND       PRES   REMARKS
ATLANTIC *     SUNNY     90  79  70 S13G18    29.81F HX 105
CLARINDA *       N/A     88  81  79 MISG      29.84F HX 105
COUNCIL BLFS * SUNNY     90  77  66 S15G24    29.80S HX 102
CRESTON *      CLOUDY    90  77  66 S16G23    29.86S HX 102
HARLAN  *      SUNNY     88  77  70 S14G21    29.84S HX 100
LAMONI         CLOUDY    87  76  69 S13       29.86F HX  97
RED OAK *      PTSUNNY   90  79  70 S10       29.82F HX 105
SHENANDOAH *   CLOUDY    88  82  84 S8        29.81F HX 108
$$

IAZ047>049-059>061-072>074-084-232300-
   CENTRAL IOWA

CITY           SKY/WX    TMP DP  RH WIND       PRES   REMARKS
AMES           CLOUDY    88  81  79 S8        29.83S HX 106
ANKENY *         N/A    N/A N/A N/A MISG        N/A
BOONE *        MOSUNNY   88  79  74 S9G15     29.83S HX 102
CHARITON *       N/A    N/A N/A N/A MISG        N/A
DES MOINES     PTSUNNY   92  79  65 S14       29.82S HX 108
GRINNELL*      CLOUDY    87  79  77 SE5       29.86F HX 101
KNOXVILLE *    CLOUDY    88  79  74 S9        29.83S HX 102
MARSHALLTOWN   CLOUDY    84  82  94 E6        29.85R HX 100
NEWTON *       CLOUDY    88  84  89 S5        29.84S HX 112
PELLA *        CLOUDY    89  78  70 S7        29.86R HX 102
PERRY *          N/A     89  81  77 S7        29.83R HX 109
$$

IAZ004>006-015-016-023>025-035-036-232300-
   NORTH CENTRAL IOWA

CITY           SKY/WX    TMP DP  RH WIND       PRES   REMARKS
ALGONA *       MOSUNNY   86  79  79 S10G20    29.81S HX  99
ESTHERVILLE    MOSUNNY   84  76  76 S14       29.80F HX  93
FORT DODGE *   MOSUNNY   86  77  74 S10G17    29.82S HX  97
MASON CITY     PTSUNNY   78  72  81 SE14G22   29.87S HX  80
FOREST CITY *  CLOUDY    79  73  83 SE13      29.85F HX  82
IOWA FALLS *     N/A     83  78  84 E8        29.86F HX  93
$$

IAZ007>011-017>019-026>030-037>042-050>054-066-232300-
   NORTHEAST IOWA

CITY           SKY/WX    TMP DP  RH WIND       PRES   REMARKS
CEDAR RAPIDS   LGT RAIN  86  82  88 NE3       29.89R HX 104
CHARLES CITY * CLOUDY    73  72  94 SE17G23   29.88F
CLINTON *      CLOUDY    87  80  79 SE10      29.90F HX 103
DECORAH *      CLOUDY    70  70 100 SE7       29.92R
DUBUQUE        CLOUDY    77  73  87 SE7       29.93S
MONTICELLO *   HVY RAIN N/A N/A N/A MISG        N/A
OELWEIN *      CLOUDY    72  70  94 SE9       29.90F
WATERLOO       LGT RAIN  74  71  91 E7        29.86F
$$

IAZ064-065-067-068-078-232300-
   EAST CENTRAL IOWA

CITY           SKY/WX    TMP DP  RH WIND       PRES   REMARKS
DAVENPORT      CLOUDY    87  79  76 SE10      29.89F HX 101
IOWA CITY      CLOUDY    87  80  79 S7        29.87S HX 103
MT. PLEASANT * CLOUDY    91  81  72 S7        29.89S HX 111
MUSCATINE *    CLOUDY    90  79  70 S12G18    29.87F HX 105
QUAD CITIES    CLOUDY    90  80  72 SE10      29.89S HX 107
$$

IAZ062-063-075>077-085>089-095>099-232300-
   SOUTHEAST IOWA

CITY           SKY/WX    TMP DP  RH WIND       PRES   REMARKS
BURLINGTON     CLOUDY    92  81  70 S9        29.90R HX 112
FAIRFIELD *    CLOUDY    90  77  66 S12       29.86F HX 102
KEOKUK *       SUNNY     91  79  66 S12G18    29.88S HX 107
CENTERVILLE *    N/A     90  75  62 S8        29.89S HX 100
OTTUMWA        CLOUDY    86  77  74 S6        29.86R HX  97
WASHINGTON *   CLOUDY    88  81  79 SE10G17   29.87F HX 105
$$

ABBREVIATIONS USED IN REMARKS
   TC - TEMPERATURES IN CELSIUS
  WCI - WIND CHILL INDEX
   HX - HEAT INDEX
  VSB - VISIBILITY
$$





USA.gov is the U.S. government's official web portal to all federal, state and local government web resources and services.